Year,Month,Day,Hour,Minute,Value (Times are PST for windgust in km/hr)
2020,11,17,00,00,6.40
2020,11,17,00,01,4.80
2020,11,17,00,02,4.80
2020,11,17,00,03,3.20
2020,11,17,00,04,3.20
2020,11,17,00,05,6.40
2020,11,17,00,06,8.10
2020,11,17,00,07,8.10
2020,11,17,00,08,4.80
2020,11,17,00,09,3.20
2020,11,17,00,10,6.40
2020,11,17,00,11,6.40
2020,11,17,00,12,4.80
2020,11,17,00,13,8.10
2020,11,17,00,14,6.40
2020,11,17,00,15,3.20
2020,11,17,00,16,3.20
2020,11,17,00,17,3.20
2020,11,17,00,18,3.20
2020,11,17,00,19,4.80
2020,11,17,00,20,4.80
2020,11,17,00,21,4.80
2020,11,17,00,22,4.80
2020,11,17,00,23,3.20
2020,11,17,00,24,1.60
2020,11,17,00,25,1.60
2020,11,17,00,26,3.20
2020,11,17,00,27,4.80
2020,11,17,00,28,6.40
2020,11,17,00,29,6.40
2020,11,17,00,30,4.80
2020,11,17,00,31,1.60
2020,11,17,00,32,3.20
2020,11,17,00,33,3.20
2020,11,17,00,38,1.60
2020,11,17,00,39,1.60
2020,11,17,00,42,1.60
2020,11,17,00,43,3.20
2020,11,17,00,44,3.20
2020,11,17,00,45,3.20
2020,11,17,00,46,6.40
2020,11,17,00,47,4.80
2020,11,17,00,48,4.80
2020,11,17,00,49,6.40
2020,11,17,00,50,6.40
2020,11,17,00,51,3.20
2020,11,17,00,52,6.40
2020,11,17,00,53,6.40
2020,11,17,00,54,3.20
2020,11,17,00,55,3.20
2020,11,17,00,56,3.20
2020,11,17,00,57,8.10
2020,11,17,00,58,4.80
2020,11,17,00,59,6.40
2020,11,17,01,00,6.40
2020,11,17,01,43,3.20
2020,11,17,01,44,4.80
2020,11,17,01,45,3.20
2020,11,17,01,49,4.80
2020,11,17,01,50,16.10
2020,11,17,01,51,4.80
2020,11,17,01,52,9.60
2020,11,17,01,53,8.10
2020,11,17,01,54,8.10
2020,11,17,01,55,9.60
2020,11,17,01,56,11.30
2020,11,17,01,57,6.40
2020,11,17,01,58,8.10
2020,11,17,01,59,14.50
2020,11,17,02,00,12.90
2020,11,17,02,01,11.30
2020,11,17,02,02,8.10
2020,11,17,02,03,8.10
2020,11,17,02,04,16.10
2020,11,17,02,05,16.10
2020,11,17,02,06,11.30
2020,11,17,02,07,14.50
2020,11,17,02,08,9.60
2020,11,17,02,09,11.30
2020,11,17,02,10,9.60
2020,11,17,02,11,12.90
2020,11,17,02,12,8.10
2020,11,17,02,13,11.30
2020,11,17,02,14,9.60
2020,11,17,02,15,6.40
2020,11,17,02,16,4.80
2020,11,17,02,17,14.50
2020,11,17,02,18,6.40
2020,11,17,02,19,9.60
2020,11,17,02,20,14.50
2020,11,17,02,21,9.60
2020,11,17,02,22,20.90
2020,11,17,02,23,12.90
2020,11,17,02,24,14.50
2020,11,17,02,25,14.50
2020,11,17,02,26,16.10
2020,11,17,02,27,14.50
2020,11,17,02,28,8.10
2020,11,17,02,29,6.40
2020,11,17,02,30,12.90
2020,11,17,02,31,11.30
2020,11,17,02,32,9.60
2020,11,17,02,33,8.10
2020,11,17,02,34,9.60
2020,11,17,02,35,17.70
2020,11,17,02,36,6.40
2020,11,17,02,37,8.10
2020,11,17,02,38,27.40
2020,11,17,02,39,12.90
2020,11,17,02,40,14.50
2020,11,17,02,41,17.70
2020,11,17,02,42,19.30
2020,11,17,02,43,17.70
2020,11,17,02,44,11.30
2020,11,17,02,45,9.60
2020,11,17,02,46,20.90
2020,11,17,02,47,20.90
2020,11,17,02,48,30.60
2020,11,17,02,49,22.50
2020,11,17,02,50,20.90
2020,11,17,02,51,14.50
2020,11,17,02,52,17.70
2020,11,17,02,53,20.90
2020,11,17,02,54,20.90
2020,11,17,02,55,17.70
2020,11,17,02,56,22.50
2020,11,17,02,57,24.20
2020,11,17,02,58,14.50
2020,11,17,02,59,20.90
2020,11,17,03,00,12.90
2020,11,17,03,01,19.30
2020,11,17,03,02,19.30
2020,11,17,03,03,24.20
2020,11,17,03,04,17.70
2020,11,17,03,05,22.50
2020,11,17,03,06,20.90
2020,11,17,03,07,24.20
2020,11,17,03,08,24.20
2020,11,17,03,09,25.70
2020,11,17,03,10,25.70
2020,11,17,03,11,16.10
2020,11,17,03,12,19.30
2020,11,17,03,13,16.10
2020,11,17,03,14,32.20
2020,11,17,03,15,17.70
2020,11,17,03,16,30.60
2020,11,17,03,17,19.30
2020,11,17,03,18,19.30
2020,11,17,03,19,19.30
2020,11,17,03,20,37.00
2020,11,17,03,21,27.40
2020,11,17,03,22,19.30
2020,11,17,03,23,24.20
2020,11,17,03,24,30.60
2020,11,17,03,25,27.40
2020,11,17,03,26,37.00
2020,11,17,03,27,17.70
2020,11,17,03,28,27.40
2020,11,17,03,29,24.20
2020,11,17,03,30,27.40
2020,11,17,03,31,22.50
2020,11,17,03,32,22.50
2020,11,17,03,33,19.30
2020,11,17,03,34,17.70
2020,11,17,03,35,19.30
2020,11,17,03,36,29.00
2020,11,17,03,37,17.70
2020,11,17,03,38,16.10
2020,11,17,03,39,12.90
2020,11,17,03,40,14.50
2020,11,17,03,41,27.40
2020,11,17,03,42,25.70
2020,11,17,03,43,14.50
2020,11,17,03,44,14.50
2020,11,17,03,45,16.10
2020,11,17,03,46,14.50
2020,11,17,03,47,24.20
2020,11,17,03,48,29.00
2020,11,17,03,49,22.50
2020,11,17,03,50,16.10
2020,11,17,03,51,17.70
2020,11,17,03,52,22.50
2020,11,17,03,53,16.10
2020,11,17,03,54,19.30
2020,11,17,03,55,22.50
2020,11,17,03,56,16.10
2020,11,17,03,57,14.50
2020,11,17,03,58,19.30
2020,11,17,03,59,11.30
2020,11,17,04,00,35.40
2020,11,17,04,01,19.30
2020,11,17,04,02,22.50
2020,11,17,04,03,27.40
2020,11,17,04,04,30.60
2020,11,17,04,05,24.20
2020,11,17,04,06,17.70
2020,11,17,04,07,24.20
2020,11,17,04,08,16.10
2020,11,17,04,09,11.30
2020,11,17,04,10,24.20
2020,11,17,04,11,22.50
2020,11,17,04,12,17.70
2020,11,17,04,13,19.30
2020,11,17,04,14,22.50
2020,11,17,04,15,20.90
2020,11,17,04,16,12.90
2020,11,17,04,17,17.70
2020,11,17,04,18,20.90
2020,11,17,04,19,27.40
2020,11,17,04,20,24.20
2020,11,17,04,21,14.50
2020,11,17,04,22,22.50
2020,11,17,04,23,19.30
2020,11,17,04,24,17.70
2020,11,17,04,25,12.90
2020,11,17,04,26,24.20
2020,11,17,04,27,24.20
2020,11,17,04,28,20.90
2020,11,17,04,29,16.10
2020,11,17,04,30,24.20
2020,11,17,04,31,14.50
2020,11,17,04,32,20.90
2020,11,17,04,33,22.50
2020,11,17,04,34,27.40
2020,11,17,04,35,20.90
2020,11,17,04,36,24.20
2020,11,17,04,37,20.90
2020,11,17,04,38,32.20
2020,11,17,04,39,35.40
2020,11,17,04,40,20.90
2020,11,17,04,41,27.40
2020,11,17,04,42,24.20
2020,11,17,04,43,29.00
2020,11,17,04,44,20.90
2020,11,17,04,45,24.20
2020,11,17,04,46,22.50
2020,11,17,04,47,27.40
2020,11,17,04,48,22.50
2020,11,17,04,49,24.20
2020,11,17,04,50,19.30
2020,11,17,04,51,22.50
2020,11,17,04,52,19.30
2020,11,17,04,53,32.20
2020,11,17,04,54,32.20
2020,11,17,04,55,20.90
2020,11,17,04,56,22.50
2020,11,17,04,57,19.30
2020,11,17,04,58,17.70
2020,11,17,04,59,19.30
2020,11,17,05,00,22.50
2020,11,17,05,01,32.20
2020,11,17,05,02,20.90
2020,11,17,05,03,17.70
2020,11,17,05,04,17.70
2020,11,17,05,05,22.50
2020,11,17,05,06,11.30
2020,11,17,05,07,22.50
2020,11,17,05,08,20.90
2020,11,17,05,09,25.70
2020,11,17,05,10,22.50
2020,11,17,05,11,20.90
2020,11,17,05,12,25.70
2020,11,17,05,13,24.20
2020,11,17,05,14,17.70
2020,11,17,05,15,24.20
2020,11,17,05,16,25.70
2020,11,17,05,17,22.50
2020,11,17,05,18,14.50
2020,11,17,05,19,12.90
2020,11,17,05,20,17.70
2020,11,17,05,21,14.50
2020,11,17,05,22,22.50
2020,11,17,05,23,14.50
2020,11,17,05,24,14.50
2020,11,17,05,25,22.50
2020,11,17,05,26,17.70
2020,11,17,05,27,20.90
2020,11,17,05,28,22.50
2020,11,17,05,29,27.40
2020,11,17,05,30,20.90
2020,11,17,05,31,12.90
2020,11,17,05,32,30.60
2020,11,17,05,33,25.70
2020,11,17,05,34,20.90
2020,11,17,05,35,9.60
2020,11,17,05,36,25.70
2020,11,17,05,37,16.10
2020,11,17,05,38,16.10
2020,11,17,05,39,19.30
2020,11,17,05,40,17.70
2020,11,17,05,41,12.90
2020,11,17,05,42,16.10
2020,11,17,05,43,16.10
2020,11,17,05,44,19.30
2020,11,17,05,45,29.00
2020,11,17,05,46,29.00
2020,11,17,05,47,22.50
2020,11,17,05,48,22.50
2020,11,17,05,49,24.20
2020,11,17,05,50,30.60
2020,11,17,05,51,16.10
2020,11,17,05,52,8.10
2020,11,17,05,53,20.90
2020,11,17,05,54,22.50
2020,11,17,05,55,27.40
2020,11,17,05,56,20.90
2020,11,17,05,57,19.30
2020,11,17,05,58,22.50
2020,11,17,05,59,33.80
2020,11,17,06,00,29.00
2020,11,17,06,01,14.50
2020,11,17,06,02,37.00
2020,11,17,06,03,32.20
2020,11,17,06,04,22.50
2020,11,17,06,05,35.40
2020,11,17,06,06,32.20
2020,11,17,06,07,30.60
2020,11,17,06,08,27.40
2020,11,17,06,09,19.30
2020,11,17,06,10,27.40
2020,11,17,06,11,32.20
2020,11,17,06,12,17.70
2020,11,17,06,13,14.50
2020,11,17,06,14,22.50
2020,11,17,06,15,33.80
2020,11,17,06,16,29.00
2020,11,17,06,17,20.90
2020,11,17,06,18,27.40
2020,11,17,06,19,25.70
2020,11,17,06,20,32.20
2020,11,17,06,21,27.40
2020,11,17,06,22,25.70
2020,11,17,06,23,25.70
2020,11,17,06,24,32.20
2020,11,17,06,25,32.20
2020,11,17,06,26,35.40
2020,11,17,06,27,17.70
2020,11,17,06,28,32.20
2020,11,17,06,29,24.20
2020,11,17,06,30,27.40
2020,11,17,06,31,20.90
2020,11,17,06,32,20.90
2020,11,17,06,33,24.20
2020,11,17,06,34,25.70
2020,11,17,06,35,20.90
2020,11,17,06,36,37.00
2020,11,17,06,37,40.20
2020,11,17,06,38,30.60
2020,11,17,06,39,24.20
2020,11,17,06,40,33.80
2020,11,17,06,41,27.40
2020,11,17,06,42,46.70
2020,11,17,06,43,29.00
2020,11,17,06,44,25.70
2020,11,17,06,45,30.60
2020,11,17,06,46,48.30
2020,11,17,06,47,46.70
2020,11,17,06,48,32.20
2020,11,17,06,49,38.60
2020,11,17,06,50,32.20
2020,11,17,06,51,35.40
2020,11,17,06,52,22.50
2020,11,17,06,53,53.10
2020,11,17,06,54,49.90
2020,11,17,06,55,38.60
2020,11,17,06,56,27.40
2020,11,17,06,57,30.60
2020,11,17,06,58,16.10
2020,11,17,06,59,25.70
2020,11,17,07,00,32.20
2020,11,17,07,01,25.70
2020,11,17,07,02,19.30
2020,11,17,07,03,27.40
2020,11,17,07,04,20.90
2020,11,17,07,05,25.70
2020,11,17,07,06,25.70
2020,11,17,07,07,27.40
2020,11,17,07,08,29.00
2020,11,17,07,09,19.30
2020,11,17,07,10,17.70
2020,11,17,07,11,19.30
2020,11,17,07,12,19.30
2020,11,17,07,13,17.70
2020,11,17,07,14,32.20
2020,11,17,07,15,27.40
2020,11,17,07,16,27.40
2020,11,17,07,17,22.50
2020,11,17,07,18,20.90
2020,11,17,07,19,29.00
2020,11,17,07,20,17.70
2020,11,17,07,21,16.10
2020,11,17,07,22,27.40
2020,11,17,07,23,17.70
2020,11,17,07,24,20.90
2020,11,17,07,25,20.90
2020,11,17,07,26,16.10
2020,11,17,07,27,20.90
2020,11,17,07,28,20.90
2020,11,17,07,29,25.70
2020,11,17,07,30,25.70
2020,11,17,07,31,24.20
2020,11,17,07,32,16.10
2020,11,17,07,33,22.50
2020,11,17,07,34,19.30
2020,11,17,07,35,22.50
2020,11,17,07,36,30.60
2020,11,17,07,37,29.00
2020,11,17,07,38,25.70
2020,11,17,07,39,29.00
2020,11,17,07,40,20.90
2020,11,17,07,41,14.50
2020,11,17,07,42,19.30
2020,11,17,07,43,17.70
2020,11,17,07,44,24.20
2020,11,17,07,45,24.20
2020,11,17,07,46,19.30
2020,11,17,07,47,27.40
2020,11,17,07,48,17.70
2020,11,17,07,49,22.50
2020,11,17,07,50,33.80
2020,11,17,07,51,30.60
2020,11,17,07,52,37.00
2020,11,17,07,53,25.70
2020,11,17,07,54,32.20
2020,11,17,07,55,25.70
2020,11,17,07,56,19.30
2020,11,17,07,57,22.50
2020,11,17,07,58,32.20
2020,11,17,07,59,22.50
2020,11,17,08,00,22.50
2020,11,17,08,01,27.40
2020,11,17,08,02,30.60
2020,11,17,08,03,29.00
2020,11,17,08,04,22.50
2020,11,17,08,05,27.40
2020,11,17,08,06,30.60
2020,11,17,08,07,46.70
2020,11,17,08,08,12.90
2020,11,17,08,09,25.70
2020,11,17,08,10,20.90
2020,11,17,08,11,19.30
2020,11,17,08,12,22.50
2020,11,17,08,13,20.90
2020,11,17,08,14,25.70
2020,11,17,08,15,19.30
2020,11,17,08,16,22.50
2020,11,17,08,17,17.70
2020,11,17,08,18,30.60
2020,11,17,08,19,16.10
2020,11,17,08,20,24.20
2020,11,17,08,21,30.60
2020,11,17,08,22,14.50
2020,11,17,08,23,22.50
2020,11,17,08,24,22.50
2020,11,17,08,25,22.50
2020,11,17,08,26,17.70
2020,11,17,08,27,19.30
2020,11,17,08,28,25.70
2020,11,17,08,29,32.20
2020,11,17,08,30,29.00
2020,11,17,08,31,22.50
2020,11,17,08,32,24.20
2020,11,17,08,33,27.40
2020,11,17,08,34,29.00
2020,11,17,08,35,25.70
2020,11,17,08,36,30.60
2020,11,17,08,37,22.50
2020,11,17,08,38,25.70
2020,11,17,08,39,24.20
2020,11,17,08,40,30.60
2020,11,17,08,41,27.40
2020,11,17,08,42,22.50
2020,11,17,08,43,20.90
2020,11,17,08,44,33.80
2020,11,17,08,45,22.50
2020,11,17,08,46,27.40
2020,11,17,08,47,32.20
2020,11,17,08,48,24.20
2020,11,17,08,49,40.20
2020,11,17,08,50,30.60
2020,11,17,08,51,17.70
2020,11,17,08,52,29.00
2020,11,17,08,53,32.20
2020,11,17,08,54,35.40
2020,11,17,08,55,24.20
2020,11,17,08,56,37.00
2020,11,17,08,57,45.10
2020,11,17,08,58,27.40
2020,11,17,08,59,29.00
2020,11,17,09,00,29.00
2020,11,17,09,01,25.70
2020,11,17,09,02,37.00
2020,11,17,09,03,35.40
2020,11,17,09,04,29.00
2020,11,17,09,05,29.00
2020,11,17,09,06,43.50
2020,11,17,09,07,35.40
2020,11,17,09,08,33.80
2020,11,17,09,09,38.60
2020,11,17,09,10,33.80
2020,11,17,09,11,40.20
2020,11,17,09,12,33.80
2020,11,17,09,13,38.60
2020,11,17,09,14,32.20
2020,11,17,09,15,35.40
2020,11,17,09,16,37.00
2020,11,17,09,17,38.60
2020,11,17,09,18,48.30
2020,11,17,09,19,45.10
2020,11,17,09,20,51.50
2020,11,17,09,21,41.80
2020,11,17,09,22,25.70
2020,11,17,09,23,48.30
2020,11,17,09,24,29.00
2020,11,17,09,25,25.70
2020,11,17,09,26,37.00
2020,11,17,09,27,27.40
2020,11,17,09,28,45.10
2020,11,17,09,29,38.60
2020,11,17,09,30,40.20
2020,11,17,09,31,29.00
2020,11,17,09,32,38.60
2020,11,17,09,33,54.70
2020,11,17,09,34,48.30
2020,11,17,09,35,37.00
2020,11,17,09,36,35.40
2020,11,17,09,37,59.50
2020,11,17,09,38,37.00
2020,11,17,09,39,56.30
2020,11,17,09,40,41.80
2020,11,17,09,41,40.20
2020,11,17,09,42,38.60
2020,11,17,09,43,33.80
2020,11,17,09,44,38.60
2020,11,17,09,45,35.40
2020,11,17,09,46,35.40
2020,11,17,09,47,38.60
2020,11,17,09,48,33.80
2020,11,17,09,49,37.00
2020,11,17,09,50,64.40
2020,11,17,09,51,32.20
2020,11,17,09,52,38.60
2020,11,17,09,53,40.20
2020,11,17,09,54,41.80
2020,11,17,09,55,43.50
2020,11,17,09,56,29.00
2020,11,17,09,57,43.50
2020,11,17,09,58,43.50
2020,11,17,09,59,27.40
2020,11,17,10,00,30.60
2020,11,17,10,01,62.70
2020,11,17,10,02,37.00
2020,11,17,10,03,33.80
2020,11,17,10,04,70.80
2020,11,17,10,05,35.40
2020,11,17,10,06,35.40
2020,11,17,10,07,40.20
2020,11,17,10,08,25.70
2020,11,17,10,09,40.20
2020,11,17,10,10,25.70
2020,11,17,10,11,33.80
2020,11,17,10,12,17.70
2020,11,17,10,13,40.20
2020,11,17,10,14,29.00
2020,11,17,10,15,32.20
2020,11,17,10,16,33.80
2020,11,17,10,17,24.20
2020,11,17,10,18,19.30
2020,11,17,10,19,30.60
2020,11,17,10,20,22.50
2020,11,17,10,21,48.30
2020,11,17,10,22,24.20
2020,11,17,10,23,30.60
2020,11,17,10,24,35.40
2020,11,17,10,25,30.60
2020,11,17,10,26,27.40
2020,11,17,10,27,38.60
2020,11,17,10,28,25.70
2020,11,17,10,29,35.40
2020,11,17,10,30,32.20
2020,11,17,10,31,37.00
2020,11,17,10,32,40.20
2020,11,17,10,33,38.60
2020,11,17,10,34,29.00
2020,11,17,10,35,25.70
2020,11,17,10,36,38.60
2020,11,17,10,37,43.50
2020,11,17,10,38,35.40
2020,11,17,10,39,27.40
2020,11,17,10,40,25.70
2020,11,17,10,41,17.70
2020,11,17,10,42,27.40
2020,11,17,10,43,17.70
2020,11,17,10,44,20.90
2020,11,17,10,45,30.60
2020,11,17,10,46,33.80
2020,11,17,10,47,25.70
2020,11,17,10,48,29.00
2020,11,17,10,49,27.40
2020,11,17,10,50,17.70
2020,11,17,10,51,38.60
2020,11,17,10,52,29.00
2020,11,17,10,53,27.40
2020,11,17,10,54,25.70
2020,11,17,10,55,27.40
2020,11,17,10,56,32.20
2020,11,17,10,57,17.70
2020,11,17,10,58,19.30
2020,11,17,10,59,16.10
2020,11,17,11,00,19.30
2020,11,17,11,01,19.30
2020,11,17,11,02,19.30
2020,11,17,11,03,29.00
2020,11,17,11,04,25.70
2020,11,17,11,05,19.30
2020,11,17,11,06,19.30
2020,11,17,11,07,19.30
2020,11,17,11,08,17.70
2020,11,17,11,09,17.70
2020,11,17,11,10,27.40
2020,11,17,11,11,32.20
2020,11,17,11,12,46.70
2020,11,17,11,13,40.20
2020,11,17,11,14,40.20
2020,11,17,11,15,35.40
2020,11,17,11,16,30.60
2020,11,17,11,17,32.20
2020,11,17,11,18,32.20
2020,11,17,11,19,38.60
2020,11,17,11,20,25.70
2020,11,17,11,21,27.40
2020,11,17,11,22,33.80
2020,11,17,11,23,43.50
2020,11,17,11,24,41.80
2020,11,17,11,25,43.50
2020,11,17,11,26,30.60
2020,11,17,11,27,40.20
2020,11,17,11,28,53.10
2020,11,17,11,29,46.70
2020,11,17,11,30,37.00
2020,11,17,11,31,30.60
2020,11,17,11,32,33.80
2020,11,17,11,33,27.40
2020,11,17,11,34,40.20
2020,11,17,11,35,20.90
2020,11,17,11,36,32.20
2020,11,17,11,37,41.80
2020,11,17,11,38,24.20
2020,11,17,11,39,33.80
2020,11,17,11,40,25.70
2020,11,17,11,41,20.90
2020,11,17,11,42,51.50
2020,11,17,11,43,24.20
2020,11,17,11,44,19.30
2020,11,17,11,45,20.90
2020,11,17,11,46,30.60
2020,11,17,11,47,35.40
2020,11,17,11,48,17.70
2020,11,17,11,49,27.40
2020,11,17,11,50,37.00
2020,11,17,11,51,14.50
2020,11,17,11,52,38.60
2020,11,17,11,53,27.40
2020,11,17,11,54,32.20
2020,11,17,11,55,22.50
2020,11,17,11,56,16.10
2020,11,17,11,57,16.10
2020,11,17,11,58,29.00
2020,11,17,11,59,19.30
2020,11,17,12,00,22.50
2020,11,17,12,01,29.00
2020,11,17,12,02,24.20
2020,11,17,12,03,29.00
2020,11,17,12,04,17.70
2020,11,17,12,05,11.30
2020,11,17,12,06,22.50
2020,11,17,12,07,17.70
2020,11,17,12,08,27.40
2020,11,17,12,09,20.90
2020,11,17,12,10,29.00
2020,11,17,12,11,17.70
2020,11,17,12,12,19.30
2020,11,17,12,13,19.30
2020,11,17,12,14,22.50
2020,11,17,12,15,25.70
2020,11,17,12,16,20.90
2020,11,17,12,17,24.20
2020,11,17,12,18,32.20
2020,11,17,12,19,22.50
2020,11,17,12,20,25.70
2020,11,17,12,21,22.50
2020,11,17,12,22,14.50
2020,11,17,12,23,16.10
2020,11,17,12,24,12.90
2020,11,17,12,25,11.30
2020,11,17,12,26,22.50
2020,11,17,12,27,11.30
2020,11,17,12,28,14.50
2020,11,17,12,29,27.40
2020,11,17,12,30,19.30
2020,11,17,12,31,14.50
2020,11,17,12,32,19.30
2020,11,17,12,33,16.10
2020,11,17,12,34,19.30
2020,11,17,12,35,16.10
2020,11,17,12,36,22.50
2020,11,17,12,37,17.70
2020,11,17,12,38,17.70
2020,11,17,12,39,17.70
2020,11,17,12,40,16.10
2020,11,17,12,41,17.70
2020,11,17,12,42,14.50
2020,11,17,12,43,12.90
2020,11,17,12,44,6.40
2020,11,17,12,45,12.90
2020,11,17,12,46,16.10
2020,11,17,12,47,16.10
2020,11,17,12,48,16.10
2020,11,17,12,49,14.50
2020,11,17,12,50,17.70
2020,11,17,12,51,12.90
2020,11,17,12,52,9.60
2020,11,17,12,53,11.30
2020,11,17,12,54,12.90
2020,11,17,12,55,8.10
2020,11,17,12,56,12.90
2020,11,17,12,57,11.30
2020,11,17,12,58,12.90
2020,11,17,12,59,12.90
2020,11,17,13,00,14.50
2020,11,17,13,01,8.10
2020,11,17,13,02,11.30
2020,11,17,13,03,9.60
2020,11,17,13,04,4.80
2020,11,17,13,05,6.40
2020,11,17,13,06,4.80
2020,11,17,13,07,4.80
2020,11,17,13,08,12.90
2020,11,17,13,09,9.60
2020,11,17,13,10,4.80
2020,11,17,13,11,6.40
2020,11,17,13,12,4.80
2020,11,17,13,13,6.40
2020,11,17,13,14,1.60
2020,11,17,13,15,1.60
2020,11,17,13,16,4.80
2020,11,17,13,17,8.10
2020,11,17,13,18,3.20
2020,11,17,13,19,4.80
2020,11,17,13,20,1.60
2020,11,17,13,22,3.20
2020,11,17,13,23,1.60
2020,11,17,13,24,3.20
2020,11,17,13,25,4.80
2020,11,17,13,26,6.40
2020,11,17,13,27,9.60
2020,11,17,13,28,9.60
2020,11,17,13,29,8.10
2020,11,17,13,30,4.80
2020,11,17,13,31,1.60
2020,11,17,13,32,3.20
2020,11,17,13,33,4.80
2020,11,17,13,34,6.40
2020,11,17,13,35,4.80
2020,11,17,13,36,9.60
2020,11,17,13,37,14.50
2020,11,17,13,38,4.80
2020,11,17,13,39,11.30
2020,11,17,13,40,9.60
2020,11,17,13,41,6.40
2020,11,17,13,42,4.80
2020,11,17,13,43,4.80
2020,11,17,13,44,4.80
2020,11,17,13,45,12.90
2020,11,17,13,46,4.80
2020,11,17,13,47,6.40
2020,11,17,13,48,4.80
2020,11,17,13,49,4.80
2020,11,17,13,50,6.40
2020,11,17,13,51,6.40
2020,11,17,13,52,8.10
2020,11,17,13,53,9.60
2020,11,17,13,54,6.40
2020,11,17,13,55,3.20
2020,11,17,13,56,6.40
2020,11,17,13,57,8.10
2020,11,17,13,58,16.10
2020,11,17,13,59,16.10
2020,11,17,14,00,12.90
2020,11,17,14,01,6.40
2020,11,17,14,02,11.30
2020,11,17,14,03,12.90
2020,11,17,14,04,11.30
2020,11,17,14,05,4.80
2020,11,17,14,06,8.10
2020,11,17,14,07,4.80
2020,11,17,14,08,9.60
2020,11,17,14,09,9.60
2020,11,17,14,10,11.30
2020,11,17,14,11,9.60
2020,11,17,14,12,11.30
2020,11,17,14,13,8.10
2020,11,17,14,14,6.40
2020,11,17,14,15,8.10
2020,11,17,14,16,6.40
2020,11,17,14,17,4.80
2020,11,17,14,18,4.80
2020,11,17,14,19,6.40
2020,11,17,14,20,11.30
2020,11,17,14,21,11.30
2020,11,17,14,22,9.60
2020,11,17,14,23,16.10
2020,11,17,14,24,17.70
2020,11,17,14,25,14.50
2020,11,17,14,26,12.90
2020,11,17,14,27,12.90
2020,11,17,14,28,16.10
2020,11,17,14,29,17.70
2020,11,17,14,30,14.50
2020,11,17,14,31,14.50
2020,11,17,14,32,14.50
2020,11,17,14,33,14.50
2020,11,17,14,34,16.10
2020,11,17,14,35,12.90
2020,11,17,14,36,14.50
2020,11,17,14,37,3.20
2020,11,17,14,38,8.10
2020,11,17,14,39,6.40
2020,11,17,14,40,12.90
2020,11,17,14,41,12.90
2020,11,17,14,42,17.70
2020,11,17,14,43,12.90
2020,11,17,14,44,16.10
2020,11,17,14,45,9.60
2020,11,17,14,46,11.30
2020,11,17,14,47,9.60
2020,11,17,14,48,12.90
2020,11,17,14,49,6.40
2020,11,17,14,50,8.10
2020,11,17,14,51,4.80
2020,11,17,14,52,16.10
2020,11,17,14,53,9.60
2020,11,17,14,54,14.50
2020,11,17,14,55,19.30
2020,11,17,14,56,11.30
2020,11,17,14,57,11.30
2020,11,17,14,58,8.10
2020,11,17,14,59,16.10
2020,11,17,15,00,8.10
2020,11,17,15,01,4.80
2020,11,17,15,02,11.30
2020,11,17,15,03,6.40
2020,11,17,15,04,8.10
2020,11,17,15,05,6.40
2020,11,17,15,06,4.80
2020,11,17,15,07,6.40
2020,11,17,15,08,8.10
2020,11,17,15,09,12.90
2020,11,17,15,10,6.40
2020,11,17,15,11,9.60
2020,11,17,15,12,9.60
2020,11,17,15,13,6.40
2020,11,17,15,14,3.20
2020,11,17,15,15,3.20
2020,11,17,15,16,9.60
2020,11,17,15,17,6.40
2020,11,17,15,18,8.10
2020,11,17,15,19,8.10
2020,11,17,15,20,11.30
2020,11,17,15,21,9.60
2020,11,17,15,22,11.30
2020,11,17,15,23,11.30
2020,11,17,15,24,17.70
2020,11,17,15,25,9.60
2020,11,17,15,26,6.40
2020,11,17,15,27,8.10
2020,11,17,15,28,14.50
2020,11,17,15,29,9.60
2020,11,17,15,30,11.30
2020,11,17,15,31,8.10
2020,11,17,15,32,11.30
2020,11,17,15,33,12.90
2020,11,17,15,34,11.30
2020,11,17,15,35,14.50
2020,11,17,15,36,20.90
2020,11,17,15,37,16.10
2020,11,17,15,38,11.30
2020,11,17,15,39,12.90
2020,11,17,15,40,11.30
2020,11,17,15,41,6.40
2020,11,17,15,42,8.10
2020,11,17,15,43,6.40
2020,11,17,15,44,11.30
2020,11,17,15,45,4.80
2020,11,17,15,46,3.20
2020,11,17,15,47,3.20
2020,11,17,15,48,4.80
2020,11,17,15,49,6.40
2020,11,17,15,50,6.40
2020,11,17,15,51,8.10
2020,11,17,15,52,6.40
2020,11,17,15,53,4.80
2020,11,17,15,54,6.40
2020,11,17,15,55,19.30
2020,11,17,15,56,9.60
2020,11,17,15,57,6.40
2020,11,17,15,58,8.10
2020,11,17,15,59,8.10
2020,11,17,16,00,6.40
2020,11,17,16,01,8.10
2020,11,17,16,02,9.60
2020,11,17,16,03,14.50
2020,11,17,16,04,6.40
2020,11,17,16,05,6.40
2020,11,17,16,06,8.10
2020,11,17,16,07,8.10
2020,11,17,16,08,14.50
2020,11,17,16,09,11.30
2020,11,17,16,10,8.10
2020,11,17,16,11,6.40
2020,11,17,16,12,11.30
2020,11,17,16,13,12.90
2020,11,17,16,14,14.50
2020,11,17,16,15,16.10
2020,11,17,16,16,17.70
2020,11,17,16,17,8.10
2020,11,17,16,18,11.30
2020,11,17,16,19,8.10
2020,11,17,16,20,12.90
2020,11,17,16,21,19.30
2020,11,17,16,22,12.90
2020,11,17,16,23,3.20
2020,11,17,16,24,6.40
2020,11,17,16,25,8.10
2020,11,17,16,26,12.90
2020,11,17,16,27,8.10
2020,11,17,16,28,8.10
2020,11,17,16,29,9.60
2020,11,17,16,30,14.50
2020,11,17,16,31,12.90
2020,11,17,16,32,25.70
2020,11,17,16,33,12.90
2020,11,17,16,34,16.10
2020,11,17,16,35,14.50
2020,11,17,16,36,12.90
2020,11,17,16,37,8.10
2020,11,17,16,38,16.10
2020,11,17,16,39,20.90
2020,11,17,16,40,22.50
2020,11,17,16,41,20.90
2020,11,17,16,42,16.10
2020,11,17,16,43,12.90
2020,11,17,16,44,19.30
2020,11,17,16,45,16.10
2020,11,17,16,46,11.30
2020,11,17,16,47,16.10
2020,11,17,16,48,14.50
2020,11,17,16,49,12.90
2020,11,17,16,50,11.30
2020,11,17,16,51,6.40
2020,11,17,16,52,14.50
2020,11,17,16,53,8.10
2020,11,17,16,54,11.30
2020,11,17,16,55,8.10
2020,11,17,16,56,17.70
2020,11,17,16,57,20.90
2020,11,17,16,58,19.30
2020,11,17,16,59,16.10
2020,11,17,17,00,16.10
2020,11,17,17,01,12.90
2020,11,17,17,02,11.30
2020,11,17,17,03,16.10
2020,11,17,17,04,9.60
2020,11,17,17,05,11.30
2020,11,17,17,06,6.40
2020,11,17,17,07,11.30
2020,11,17,17,08,16.10
2020,11,17,17,09,19.30
2020,11,17,17,10,14.50
2020,11,17,17,11,19.30
2020,11,17,17,12,19.30
2020,11,17,17,13,11.30
2020,11,17,17,14,11.30
2020,11,17,17,15,12.90
2020,11,17,17,16,11.30
2020,11,17,17,17,8.10
2020,11,17,17,18,4.80
2020,11,17,17,19,6.40
2020,11,17,17,20,17.70
2020,11,17,17,21,3.20
2020,11,17,17,22,8.10
2020,11,17,17,23,4.80
2020,11,17,17,24,8.10
2020,11,17,17,25,11.30
2020,11,17,17,26,9.60
2020,11,17,17,27,19.30
2020,11,17,17,28,17.70
2020,11,17,17,29,16.10
2020,11,17,17,30,19.30
2020,11,17,17,31,6.40
2020,11,17,17,32,4.80
2020,11,17,17,33,6.40
2020,11,17,17,34,9.60
2020,11,17,17,35,6.40
2020,11,17,17,36,16.10
2020,11,17,17,37,16.10
2020,11,17,17,38,9.60
2020,11,17,17,39,4.80
2020,11,17,17,40,4.80
2020,11,17,17,41,6.40
2020,11,17,17,42,4.80
2020,11,17,17,43,12.90
2020,11,17,17,44,6.40
2020,11,17,17,45,12.90
2020,11,17,17,46,11.30
2020,11,17,17,47,11.30
2020,11,17,17,48,4.80
2020,11,17,17,49,14.50
2020,11,17,17,50,16.10
2020,11,17,17,51,11.30
2020,11,17,17,52,9.60
2020,11,17,17,53,9.60
2020,11,17,17,54,12.90
2020,11,17,17,55,19.30
2020,11,17,17,56,6.40
2020,11,17,17,57,4.80
2020,11,17,17,58,4.80
2020,11,17,17,59,6.40
2020,11,17,18,00,6.40
2020,11,17,18,01,4.80
2020,11,17,18,02,3.20
2020,11,17,18,03,3.20
2020,11,17,18,04,4.80
2020,11,17,18,05,4.80
2020,11,17,18,06,17.70
2020,11,17,18,07,17.70
2020,11,17,18,08,12.90
2020,11,17,18,09,16.10
2020,11,17,18,10,6.40
2020,11,17,18,11,4.80
2020,11,17,18,12,3.20
2020,11,17,18,13,6.40
2020,11,17,18,14,6.40
2020,11,17,18,15,12.90
2020,11,17,18,16,9.60
2020,11,17,18,17,6.40
2020,11,17,18,18,8.10
2020,11,17,18,19,8.10
2020,11,17,18,20,9.60
2020,11,17,18,21,14.50
2020,11,17,18,22,6.40
2020,11,17,18,23,1.60